Regional Weather Roundup
Issued by NWS

Home | Current Version | Previous Version | Text Only | Print | Product List | Glossary Off
Versions: 1 2 3 4 5 6 7 8 9 10 11 12 13 14 15 16 17 18 19 20 21 22 23 24 25 26 27 28 29 30 31 32 33 34 35 36 37 38 39 40 41 42 43 44 45 46 47 48 49 50

274
ASUS44 KJAN 231510
RWRMS

MISSISSIPPI HOURLY WEATHER ROUNDUP
NATIONAL WEATHER SERVICE JACKSON MS
900 AM CST SUN NOV 23 2014

NOTE: "FAIR: INDICATES FEW OR NO CLOUDS BELOW 12,000 FEET WITH NO
SIGNIFICANT WEATHER AND/OR OBSTRUCTIONS TO VISIBILITY.

MSZ001>002-007>008-010>013-018>021-025>028-034>036-231600-
NORTHWEST MISSISSIPPI

CITY           SKY/WX    TMP DP  RH WIND       PRES   REMARKS
CLARKSDALE     CLOUDY    57  57 100 E12       29.66F
CLEVELAND      LGT RAIN  59  59 100 E14G21    29.62F
GREENWOOD      LGT RAIN  60  58  92 E9        29.66F
GREENVILLE     CLOUDY    60  59  96 E9        29.60F FOG
GRENADA        LGT RAIN  55  55 100 E9        29.69F
OXFORD         CLOUDY    55  55 100 SE8G16    29.72F FOG
TUNICA         RAIN      59  55  88 SE12      29.68F
$$

MSZ003>006-009-014>017-022>024-029>033-037>039-231600-
NORTHEAST MISSISSIPPI

CITY           SKY/WX    TMP DP  RH WIND       PRES   REMARKS
COLUMBUS AFB   LGT RAIN  59  59 100 SE12      29.74F FOG
CORINTH        DRIZZLE   59  55  88 SE9       29.75F
GOLDN TRIANGLE LGT RAIN  59  57  94 SE12G18   29.73F VSB 1
STARKVILLE     CLOUDY    57  55  94 SE7       29.72F
TUPELO         CLOUDY    58  56  93 MISG      29.73F FOG
$$

MSZ040-058-231600-
CENTRAL MISSISSIPPI

CITY           SKY/WX    TMP DP  RH WIND       PRES   REMARKS
JACKSON INTL   HVY RAIN  62  61  96 SE10      29.64F FOG
JACKSON HAWKNS HVY RAIN  62  60  93 E12       29.64F FOG
MERIDIAN KEY   LGT RAIN  61  60  97 CALM      29.71F
MERIDIAN NAS   LGT RAIN  61  60  97 SE10      29.72F VSB 1
RAYMOND        CLOUDY    63  57  82 E14       29.61F HAZE
VICKSBURG      LGT RAIN  63  61  93 SE16G24   29.55F
$$

MSZ059>079-231600-
SOUTH MISSISSIPPI

CITY           SKY/WX    TMP DP  RH WIND       PRES   REMARKS
BROOKHAVEN     LGT RAIN  63  63 100 SE6       29.65F
HATTIESBURG    RAIN      61  61 100 W14       29.69F FOG
MCCOMB         LGT RAIN  64  62  93 SE13G23   29.59F FOG
NATCHEZ        CLOUDY    64  61  88 S15G24    29.62R
PINE BELT      CLOUDY    61  57  88 E6        29.68F
$$

MSZ080>082-231600-
COASTAL MISSISSIPPI

CITY           SKY/WX    TMP DP  RH WIND       PRES   REMARKS
BAY ST LOUIS   PTSUNNY   66  63  88 SW7G14    29.73R
BILOXI         CLOUDY    65  65 100 SW16      29.73S
PASCAGOULA     CLOUDY    73  70  90 S15G25    29.73F
GULFPORT       CLOUDY    66  64  93 SW7       29.73R
$$



USA.gov is the U.S. government's official web portal to all federal, state and local government web resources and services.